Terug naar catalogus

IRIDIUM 24

ActiefCommunicatiePO
NORAD 25105·PAYLOAD·🇺🇸 United States

Gelanceerd Dec 20, 1997 vanaf Vandenberg Space Force Base

Loading…

Volgende Passages (komende 24 uur)

TLE

VersSource: Space-Track

Epoch: Sep 14, 2026, 10:30 UTC

1 25105U 97082B   26257.43799785  .00000279  00000-0  77892-4 0  9998
2 25105  86.3858 247.5259 0012114  27.0740 333.1090 14.42568980508690

Volg IRIDIUM 24 in realtime met AllMySat

Download on the App Store